Starlink 5981

operational
NORAD ID: 56325 Int'l Des: 2023-058 Owner: SPXS Country: US Constellation: starlink
LEOCIRCULARRETROGRADESSO

About Starlink 5981

Description loading...

Live Position

Loading 3D Globe...

Upcoming Passes

Altitude History

Altitude vs Time

uPlot chart will show altitude changes over time

Two-Line Element Set

1 56325U 23058J 25312.48639800 .00001390 00000-0 11276-3 0 9993
2 56325 97.6040 311.5201 0001898 85.2085 274.9356 15.01256833139942
Epoch: Nov 8, 2025 • Age: 66 hours

Current Status

Altitude 569.8 km
Velocity 7.58 km/s
Sub-Earth Point 50.05°N, 172.21°E
Launch Date Apr 27, 2023
Age 2.5 years
Type internet

Technical Details

Classification Payload
Mass 300.00 kg
Dry Mass 260.00 kg
Total Mass 300.00 kg
Length 0.20 m
Diameter 2.80 m
Span 9.00 m
Shape Box + pan
Manufacturer SPXS
Bus Type Starlink
Phase Status In Orbit
Owner/State SPXS/US

Large Constellations

Loading constellations...